Regional Weather Roundup
Issued by NWS Kansas City/Pleasant Hill, MO

Current Version | Previous Version | Text Only | Print | Product List | Glossary On
Versions: 1 2 3 4 5 6 7 8 9 10 11 12 13 14 15 16 17 18 19 20 21 22 23 24 25 26 27 28 29 30 31 32 33 34 35 36 37 38 39 40 41 42 43 44 45 46 47 48 49 50
000
ASUS43 KEAX 281510
RWREAX

WEATHER ROUNDUP FOR EASTERN KANSAS AND NORTHWEST MISSOURI
NATIONAL WEATHER SERVICE KANSAS CITY/PLEASANT HILL MO
1000 AM CDT WED SEP 28 2016

KSZ040-057-103>105-MOZ028-029-037-043-281600-
...KANSAS CITY METROPOLITAN AREA...

CITY           SKY/WX    TMP DP  RH WIND       PRES   REMARKS
K.C. INTL      MOSUNNY   58  46  64 N10       30.06R
K.C. DOWNTOWN  SUNNY     61  46  57 N10G18    30.04R
LEES SUMMIT    SUNNY     59  45  59 N16       30.04R
OLATHE - IXD   SUNNY     61  45  55 N16       30.05R
OLATHE - OJC   SUNNY     62  43  49 N12       30.05R
LAWRENCE       SUNNY     61  46  57 N16G23    30.06R

$$

MOZ001>008-011>017-020>025-030>033-038>040-044>046-053-054-281600-
...NORTHERN AND CENTRAL MISSOURI...

CITY           SKY/WX    TMP DP  RH WIND       PRES   REMARKS
ST. JOSEPH     SUNNY     58  46  64 N15       30.09R
MOSBY          SUNNY     59  45  58 N14G20    30.05R
WHITEMAN AFB   SUNNY     61  47  60 N15       30.00R
CLINTON        SUNNY     63  46  55 N13       30.00R
SEDALIA        SUNNY     63  45  51 N14       30.01R
WARSAW         NOT AVBL
CHILLICOTHE      N/A     57  46  66 N9G17     30.07R
KIRKSVILLE     PTSUNNY   55  44  66 N18G25    30.03R

$$

MOZ041-047>049-056>058-063>065-088>090-097-281600-
...EASTERN AND SOUTHERN MISSOURI...

CITY           SKY/WX    TMP DP  RH WIND       PRES   REMARKS
ST. LOUIS INTL MOSUNNY   64  44  48 N15G24    29.91R
SPIRIT OF STL  MOSUNNY   63  47  55 N10       29.91R
COLUMBIA       SUNNY     61  45  55 MISG      29.98R
JEFFERSON CITY MOSUNNY   61  45  55 N15       29.97R
ROLLA          SUNNY     64  48  56 N12       29.93R
OSAGE BEACH    SUNNY     64  45  49 VRB7      29.97R
SPRINGFIELD    SUNNY     68  52  56 NW14      29.96R
BRANSON        SUNNY     70  50  49 NW6       29.97R
JOPLIN         SUNNY     67  54  63 N13       30.00R
WEST PLAINS    SUNNY     68  51  54 W13       29.93R

$$

IAZ060-094-KSZ022-034>040-054-083-096-NEZ052-066-093-281600-
...KANSAS...SOUTHEAST NEBRASKA AND IOWA...

CITY           SKY/WX    TMP DP  RH WIND       PRES   REMARKS
TOPEKA         SUNNY     60  46  59 N13G24    30.08R
MANHATTAN      SUNNY     62  44  51 NE12      30.11R
EMPORIA        SUNNY     64  47  53 N10       30.07R
CHANUTE        SUNNY     68  52  56 N12       30.02R
WICHITA        SUNNY     68  53  58 N14       30.07R
OMAHA          MOSUNNY   53  44  71 N13       30.16R
LINCOLN        SUNNY     57  46  66 N12       30.18R
FALLS CITY     SUNNY     56  45  66 N15G26    30.11R
LAMONI         CLOUDY    53  46  77 N15G23    30.07R
DES MOINES     CLOUDY    55  45  68 N13G18    30.08R

$$




USA.gov is the U.S. government's official web portal to all federal, state and local government web resources and services.